Torna al catalogo

COSMOS 839 DEB

AttivoUNKNOWN
NORAD 10449·DEBRIS·🇷🇺 Russia

Lanciato Jul 8, 1976 da Plesetsk Cosmodrome

Loading…

Prossimi Passaggi (prossime 24 ore)

TLE

AggiornatoSource: Space-Track

Epoca: Sep 14, 2026, 03:43 UTC

1 10449U 76067AA  26257.15514131 -.00000045  00000-0  29545-4 0  9996
2 10449  66.0345 167.2364 0762159 309.9909  43.6516 12.45571386281448

Traccia COSMOS 839 DEB in tempo reale con AllMySat

Download on the App Store